User: anonymous   Login
Location: Unspecified
(43.4680°N, 87.1740°E)
Time: 04:26:32
(UTC+00:00)
Language:

COSMOS 2487 - Orbit

View from above orbital plane
View from above orbital plane
View from above satellite
View from above satellite

Ground track
Ground track

The orbit data is extracted from the following two-line orbital elements,

1 39194U 13032A   21171.29793057  .00004425  00000-0  95806-4 0  9996
2 39194  74.7086 358.5299 0001251 353.5050   6.6147 15.44723483446741
Epoch (UTC): 20 June 2021 07:09:01
Eccentricity: 0.0001251
inclination: 74.7086°
perigee height: 431 km
apogee height: 433 km
right ascension of ascending node: 358.5299°
argument of perigee: 353.5050°
revolutions per day: 15.44723483
mean anomaly at epoch: 6.6147°
orbit number at epoch: 44674

The dashed part of the orbit path shows where the satellite is in the earth's shadow,  

DLR